Location: Glencliff
(36.1226°N, 86.7183°W)
Time: 15:17:53
(UTC+00:00)

CZ-2C R/B - Pass Details

Date: 25 August 2019
Orbit: 705 x 907 km, 98.1° (Epoch: 16 September)

Event Time Altitude Azimuth Distance (km) Brightness Sun altitude
Exits shadow 02:59:41 39° 243° (WSW) 1,062 3.8 -28.3°
Maximum altitude 03:00:16 40° 262° (W) 1,033 3.9 -28.4°
Drops below altitude 10° 03:04:46 10° 332° (NNW) 2,201 6.2 -29.1°
Sets 03:07:12 0° 340° (NNW) 3,143 7.1 -29.5°
